Location: Newark
(43.2333°N, 2.8603°E)
Time: 15:59:00
(UTC+00:00)

N. Korean satellite - Visible Passes

Search period start: 14 November 2019 00:00
Search period end: 24 November 2019 00:00
Orbit: 456 x 506 km, 97.2° (Epoch: 13 November)

Date Brightness Start Highest point End Pass type
(mag) Time Alt. Az. Time Alt. Az. Time Alt. Az.
14 Nov 8.8 05:10:05 10° NNE 05:13:25 30° E 05:16:42 10° SSE visible
14 Nov 8.2 17:19:24 10° SSW 17:22:46 39° W 17:26:14 10° NNW visible
15 Nov 9.9 04:45:34 10° NE 04:47:52 16° E 04:50:09 10° SE visible
15 Nov 6.7 16:53:45 10° SSE 16:57:21 86° WSW 17:01:03 10° NNW visible
16 Nov 6.6 05:52:23 10° N 05:56:07 75° WNW 05:59:46 10° SSW visible
16 Nov 10.1 18:04:08 10° WSW 18:05:40 12° W 18:07:14 10° WNW visible
17 Nov 7.6 05:27:05 10° NNE 05:30:43 50° E 05:34:17 10° S visible
17 Nov 9.2 17:37:06 10° SSW 17:40:05 24° W 17:43:08 10° NW visible
18 Nov 9.1 05:02:09 10° NE 05:05:14 24° E 05:08:17 10° SSE visible
18 Nov 7.7 17:11:05 10° S 17:14:36 50° W 17:18:12 10° NNW visible
19 Nov 10.1 04:38:00 10° ENE 04:39:39 12° E 04:41:17 10° ESE visible
19 Nov 6.9 06:09:44 10° N 06:13:17 44° WNW 06:16:47 10° SW visible
19 Nov 6.6 16:45:35 10° SSE 16:49:12 75° ENE 16:52:55 10° N visible
20 Nov 6.6 05:44:14 10° NNE 05:47:57 86° E 05:51:37 10° SSW visible
20 Nov 9.9 17:55:12 10° SW 17:57:26 15° W 17:59:41 10° NW visible
21 Nov 8.1 05:19:01 10° NNE 05:22:32 39° E 05:25:58 10° SSE visible
21 Nov 8.8 17:28:37 10° SSW 17:31:52 30° W 17:35:10 10° NNW visible
22 Nov 9.5 04:54:14 10° NE 04:57:00 20° E 04:59:43 10° SE visible
22 Nov 7.2 17:02:46 10° S 17:06:23 64° W 17:10:05 10° NNW visible
23 Nov 6.7 06:01:29 10° N 06:05:07 56° WNW 06:08:40 10° SSW visible
